Wind_Speed
58 58 58 58 59 60 61 62 62 62 62 63 64 65 65 66 67 68 68 69 69 68 68 69 70 70 72 73 73 73 74 75 76 77 78 80 81 82 83 84 85 86 87 88 88 88 89 89 89 87 84 83 82 82 83 84 86 87 89 91 94 96 98 100 101 102 104 105 107 109 111 112 113 114 115 116 117 117 118 119 119 118 118 118 118
61 61 61 61 62 63 63 64 65 65 66 67 67 67 68 68 69 71 72 73 73 72 71 71 71 72 73 74 75 76 77 78 80 81 82 83 85 86 87 88 88 90 90 90 89 89 90 90 89 86 84 84 84 85 85 86 87 90 92 95 97 100 102 104 105 106 108 108 109 111 113 114 115 116 117 117 118 118 118 118 118 119 119 119 119
62 63 63 63 64 65 65 66 66 67 68 69 70 70 70 71 72 73 74 75 76 76 75 74 74 74 75 76 77 79 80 82 83 85 86 88 89 90 91 91 92 93 93 92 91 91 92 92 89 86 85 85 87 88 89 90 92 94 97 99 102 104 106 107 108 109 110 110 111 111 113 115 116 117 118 118 119 119 119 119 120 119 119 118 118
64 64 64 64 65 66 67 68 68 69 70 71 71 72 73 73 74 74 75 76 77 78 77 77 76 77 78 80 81 83 84 85 87 88 90 92 93 93 94 94 95 96 96 94 93 93 93 92 88 85 85 87 89 91 92 94 96 99 101 103 105 107 108 110 111 111 111 111 112 113 114 115 116 117 118 119 120 121 121 121 120 119 118 118 118
66 66 65 66 67 68 69 70 70 70 71 72 73 74 74 75 76 76 77 77 78 79 79 79 79 80 81 83 85 87 88 88 90 91 93 94 95 96 96 96 98 99 97 95 95 94 92 89 86 85 86 88 90 92 94 97 99 102 104 106 108 109 110 111 112 113 113 113 113 114 114 114 115 116 119 120 121 122 121 121 120 119 118 118 118
67 67 67 68 69 70 71 72 72 73 73 74 75 76 76 77 77 77 78 78 78 79 80 81 82 83 84 85 87 89 89 90 91 93 94 95 97 97 98 99 100 99 98 96 95 93 89 86 85 85 87 89 92 94 97 99 102 104 106 108 109 110 111 112 113 113 114 113 113 113 114 115 116 118 120 121 121 121 121 121 120 119 119 118 118
70 70 70 70 71 72 73 74 75 75 76 77 77 78 78 79 79 79 79 79 79 80 81 82 84 85 86 88 89 90 91 91 92 94 96 97 98 99 100 101 100 99 98 97 94 90 87 86 86 88 90 92 95 97 99 102 104 106 108 109 110 111 112 112 113 113 114 114 114 115 117 118 118 119 120 120 120 121 121 121 119 119 119 118 117
75 74 74 73 73 74 75 76 77 78 78 79 79 79 79 80 80 80 79 79 80 81 82 84 86 88 89 90 90 90 91 93 95 96 98 99 100 101 101 100 99 99 97 95 92 90 88 88 90 92 94 96 98 100 102 104 106 107 109 110 111 112 112 113 114 115 116 116 117 118 118 118 118 119 120 120 121 121 121 121 119 118 118 117 116
77 77 77 77 77 77 77 78 79 79 80 80 80 80 80 80 81 81 81 81 82 83 85 87 88 90 91 91 91 91 92 94 96 98 100 100 101 101 100 99 99 98 96 95 93 92 92 93 94 96 98 99 101 102 103 105 106 107 109 110 111 113 114 115 116 117 117 117 118 118 118 118 118 119 120 121 121 122 121 120 119 118 117 116 116
77 78 79 80 81 81 81 81 81 81 81 80 80 80 81 81 82 83 83 84 85 87 88 89 90 90 91 92 93 94 95 96 98 99 100 101 101 100 100 99 98 97 96 95 95 94 94 95 96 98 99 100 101 102 103 105 106 108 110 111 112 114 115 116 117 117 118 118 119 119 118 118 119 120 121 122 122 122 121 120 120 119 118 117 116
80 81 83 84 84 84 84 84 83 83 83 82 82 82 82 83 84 85 87 88 89 90 90 91 91 92 94 95 96 96 97 98 99 100 100 100 100 100 100 99 98 97 97 96 96 95 95 96 96 98 99 100 102 103 104 106 108 110 111 111 113 114 115 116 117 118 120 120 119 119 119 119 120 121 122 122 122 121 121 121 121 120 119 117 116
85 86 87 87 87 87 87 86 86 86 86 85 85 85 85 86 87 88 89 90 91 92 93 94 95 96 96 97 97 98 98 98 99 99 99 100 100 100 99 98 97 97 97 96 96 96 96 97 98 99 100 101 103 104 105 107 109 111 112 112 112 114 116 118 119 120 121 120 120 119 120 120 121 121 122 123 122 122 122 121 121 120 119 117 116
87 87 88 88 88 88 88 88 87 87 87 88 88 88 89 89 90 91 92 93 94 95 96 97 98 98 98 98 98 98 98 98 98 98 99 99 99 98 97 97 97 97 97 97 97 97 97 98 98 99 101 102 104 105 107 109 111 112 113 114 114 116 118 119 120 121 122 121 120 119 120 121 121 121 122 123 123 122 121 121 121 120 120 119 119
87 88 88 89 89 90 90 89 89 89 89 90 90 91 92 92 93 94 95 96 96 97 98 98 99 99 98 98 97 96 97 97 96 96 97 97 97 97 97 97 98 98 98 98 97 97 98 99 100 101 102 104 106 108 109 111 113 114 115 116 116 118 119 120 121 122 122 121 120 119 120 121 121 121 121 122 122 122 122 122 122 122 123 122 121
88 88 89 89 90 91 91 90 90 90 91 91 91 92 94 95 95 96 97 97 98 98 98 98 97 97 97 96 95 95 95 95 94 95 96 97 97 98 98 98 99 99 99 98 98 98 99 101 102 103 105 107 109 110 112 113 115 116 117 118 119 119 120 121 122 122 121 120 119 119 119 120 121 121 121 122 123 124 125 124 124 125 125 123 122
89 89 89 90 90 91 91 91 91 92 92 92 93 94 95 96 97 97 98 98 98 97 97 96 95 95 95 94 94 94 94 94 94 95 96 96 97 98 98 98 99 99 99 99 99 100 101 103 104 106 108 110 111 113 114 116 117 118 119 120 120 120 120 121 121 121 120 119 119 119 119 119 120 121 122 124 125 126 127 126 126 127 126 124 123
91 91 90 90 90 91 91 92 92 93 93 94 94 95 96 97 97 97 97 97 96 96 95 95 94 94 94 94 94 94 94 94 94 94 95 95 96 97 97 98 98 99 99 100 100 102 104 105 107 110 111 113 114 115 117 118 119 120 120 121 120 120 120 120 120 120 120 120 120 120 120 120 121 122 123 125 126 127 127 126 126 126 126 124 122
92 91 91 91 91 91 92 92 93 93 94 94 94 95 95 95 95 95 95 95 95 95 95 95 94 94 95 95 95 95 94 93 94 94 94 95 96 97 97 98 99 99 100 101 103 104 106 108 110 112 114 116 117 118 119 120 120 121 121 121 120 119 119 119 119 119 120 120 120 120 121 122 123 124 124 126 127 128 128 127 127 127 126 125 124
91 91 91 91 91 91 91 91 91 92 92 92 92 92 93 93 93 94 94 94 94 95 95 94 94 94 94 95 95 94 94 93 94 94 95 95 96 97 98 99 100 101 102 103 105 107 109 111 113 115 117 118 119 120 121 122 122 122 121 120 119 118 119 119 119 119 119 119 119 120 120 122 123 124 125 126 127 128 129 129 129 129 128 128 127
89 89 89 89 89 89 89 90 90 90 91 90 91 91 91 92 92 93 93 93 93 94 94 94 94 94 94 94 94 94 94 94 94 95 95 96 97 98 99 100 102 103 105 106 108 111 112 114 116 117 118 119 120 121 122 122 122 121 121 120 119 119 119 119 119 119 119 119 119 119 120 121 122 123 124 125 126 128 129 130 130 131 131 131 130
88 89 89 89 89 89 90 90 90 91 91 91 91 91 91 91 92 92 92 92 93 93 94 94 94 94 94 94 94 94 94 95 95 96 97 98 99 100 102 103 105 107 108 110 112 114 115 116 117 119 120 120 121 122 122 122 121 121 120 120 120 120 120 120 119 119 119 119 120 120 121 121 122 123 124 125 126 127 129 130 131 131 132 131 130
90 90 90 91 91 91 90 91 91 91 91 91 91 91 92 92 92 93 93 93 93 93 94 94 94 94 94 94 95 95 96 96 97 98 99 101 102 103 105 107 109 110 112 114 115 116 117 118 119 120 121 122 122 122 121 121 121 121 121 121 121 121 121 120 120 120 120 120 120 120 121 122 122 123 123 124 125 126 127 129 130 130 130 129 128
90 91 91 91 92 92 92 92 92 92 93 93 93 93 94 94 94 93 93 93 93 94 94 95 95 95 96 96 97 98 99 100 101 102 103 105 106 108 109 111 113 114 116 116 117 117 118 119 120 121 122 122 121 121 120 120 121 121 121 122 122 122 122 121 121 121 121 121 121 121 122 123 123 124 124 124 125 125 126 126 126 127 126 125 125
92 92 93 93 93 94 94 94 95 95 95 95 95 95 95 95 95 94 94 94 95 95 96 96 97 98 99 100 101 102 103 104 106 107 108 110 111 113 114 116 117 117 118 118 118 119 120 121 122 122 121 120 120 120 120 120 121 121 122 122 122 122 123 122 122 122 122 122 122 123 123 124 125 125 126 126 126 126 125 124 122 122 122 121 121
94 95 95 95 96 96 97 97 97 97 97 97 97 97 97 97 96 96 97 97 98 98 99 100 101 102 103 104 105 106 107 109 110 112 113 114 115 116 117 118 118 118 119 119 119 120 121 121 121 120 119 119 119 120 120 121 121 121 122 122 122 123 123 123 123 123 123 123 123 124 125 125 126 127 127 127 126 125 124 122 120 120 119 119 118
97 98 98 98 99 100 100 100 100 99 99 99 99 99 100 100 100 100 101 102 103 103 104 105 106 107 107 108 110 111 112 113 115 116 116 117 117 118 118 118 119 119 120 120 120 120 120 120 119 118 119 119 120 120 121 121 121 121 122 122 123 123 124 124 124 124 124 124 124 125 126 126 127 127 126 125 124 123 122 120 118 118 117 117 115
101 101 102 102 103 103 103 103 102 102 102 102 102 103 103 104 104 105 105 106 107 107 108 109 110 111 111 112 114 115 116 117 118 118 118 118 118 119 119 119 120 120 120 120 120 119 118 118 118 118 119 119 120 120 121 121 121 122 122 123 123 123 124 124 124 124 124 124 125 125 126 126 126 125 125 123 122 121 120 119 117 116 116 115 113
105 105 106 107 107 107 107 107 107 107 107 107 107 107 107 107 108 108 108 109 109 110 111 112 113 114 115 116 117 118 118 119 119 119 119 119 119 120 120 121 121 120 120 118 117 117 117 117 118 118 119 119 120 120 121 121 122 122 122 123 123 124 124 124 124 124 125 125 125 125 125 125 125 124 123 122 121 120 120 119 118 116 115 114 112
108 108 109 109 109 110 110 110 111 111 111 111 110 110 110 110 110 110 111 112 112 113 114 115 116 116 117 118 118 118 118 119 119 119 120 120 120 121 121 121 120 119 118 117 117 117 117 118 118 118 119 119 120 121 121 122 122 122 123 123 123 124 124 124 124 125 125 125 125 124 124 123 122 121 120 120 119 119 119 119 118 116 114 113 111
110 110 111 111 112 112 113 113 113 113 113 112 113 113 113 113 113 113 114 115 115 116 116 116 117 117 117 118 118 118 119 119 119 120 120 120 121 120 120 119 118 117 117 117 117 118 118 119 119 119 119 120 120 121 122 122 123 123 123 123 124 124 124 124 124 124 124 123 123 122 122 121 121 120 119 118 117 117 117 117 116 115 113 111 109
114 114 114 114 115 116 116 116 115 115 114 114 114 114 115 115 115 115 116 116 116 116 117 117 117 117 118 118 118 119 119 120 120 120 120 120 119 118 118 117 117 117 117 117 118 118 119 119 120 120 120 121 121 122 122 123 124 124 124 124 124 125 125 125 124 123 122 122 121 121 120 120 119 118 118 117 116 116 115 115 114 112 111 109 107
117 117 117 118 118 118 118 117 117 116 116 116 116 116 116 116 116 117 117 117 117 117 117 117 118 118 118 119 119 119 119 119 119 119 118 117 116 116 116 116 117 117 118 118 118 119 119 120 120 121 121 122 122 123 123 124 124 125 125 125 125 125 124 124 123 122 120 120 119 119 119 119 118 117 116 116 115 115 113 112 111 110 108 107 105
119 119 119 119 118 118 118 117 117 116 116 116 116 116 116 116 116 117 117 118 118 118 118 118 119 119 119 118 118 118 117 117 117 116 116 115 115 115 116 117 117 118 119 119 119 120 120 121 122 122 123 123 124 124 124 124 125 125 125 125 125 124 123 122 121 120 119 118 118 118 118 118 117 116 115 114 114 113 111 110 109 107 105 104 102
120 119 118 117 117 116 116 116 116 116 116 116 116 116 116 116 117 117 117 118 118 118 118 118 118 118 117 117 116 115 115 114 115 115 115 115 115 116 116 117 118 119 119 120 120 121 122 122 123 124 124 125 124 124 124 124 125 125 125 124 123 122 121 120 119 118 118 117 117 117 117 116 115 114 114 113 112 110 109 107 106 104 103 101 99
119 118 118 117 116 116 115 115 115 115 115 115 115 115 116 116 116 116 116 116 116 116 116 116 116 115 115 114 114 113 113 113 114 114 115 116 116 117 117 118 119 120 120 121 122 123 123 124 124 125 125 125 125 124 124 124 124 124 123 123 121 120 119 118 117 117 116 116 116 116 116 115 114 113 112 111 109 108 106 105 103 102 100 98 96
117 117 117 116 115 115 115 114 114 114 114 114 114 114 114 114 114 114 114 114 114 114 114 114 114 114 114 114 113 113 113 113 114 115 116 116 117 118 119 120 121 122 123 123 124 124 125 125 125 125 125 125 125 124 124 123 123 122 121 121 120 119 117 116 115 115 115 116 115 115 114 114 113 111 110 108 107 105 104 102 101 99 97 95 93
114 115 115 114 113 113 113 113 112 112 112 112 112 112 112 112 112 112 112 112 113 113 113 113 113 113 114 114 114 115 115 115 115 116 116 117 118 119 120 121 122 123 124 124 125 125 125 125 125 125 125 125 124 124 123 122 122 121 120 119 118 117 116 115 114 114 115 115 114 114 113 112 111 109 107 105 104 103 101 100 98 96 94 92 91
112 112 112 112 111 110 110 110 110 110 110 110 110 111 111 111 111 112 112 112 113 113 113 114 114 114 115 115 116 116 117 117 118 118 119 120 120 121 122 122 123 123 124 124 124 124 124 124 124 124 124 124 124 123 122 121 121 120 119 118 116 115 114 114 114 114 114 113 112 112 111 110 108 106 104 102 101 100 98 97 95 93 91 90 88
111 110 109 109 109 108 108 107 108 108 109 109 110 110 111 111 112 112 113 113 113 114 114 115 115 115 116 116 117 118 119 119 120 120 121 122 122 122 123 123 123 123 124 124 124 124 124 124 123 123 123 123 122 122 121 120 120 119 118 117 116 115 114 114 114 113 112 111 110 109 108 107 105 103 101 99 98 96 95 94 92 89 88 87 86
111 111 110 109 109 108 108 108 108 108 109 110 110 111 112 112 113 113 114 114 115 115 116 116 117 117 118 118 119 119 120 120 121 122 122 122 123 123 123 123 123 123 123 123 123 123 123 123 122 122 122 121 121 121 120 119 119 118 117 116 115 114 114 113 113 112 110 108 107 106 105 103 102 100 98 96 94 93 92 90 89 87 85 85 83
112 112 111 111 111 111 110 110 110 110 110 111 111 112 113 114 114 115 115 116 116 117 117 118 118 119 119 120 120 120 121 121 122 122 122 122 122 122 122 122 123 123 123 123 123 122 122 121 121 121 120 120 120 120 119 119 118 117 117 116 116 115 113 112 111 109 107 105 103 102 101 100 99 97 95 93 91 89 88 87 86 84 83 82 80
113 112 112 112 112 112 112 112 113 113 113 113 113 113 114 115 115 116 117 117 118 118 119 119 119 120 120 120 120 121 121 121 121 121 121 121 122 122 122 122 122 122 122 122 122 121 121 120 120 120 120 119 119 119 118 118 117 117 117 116 115 114 112 110 108 106 104 102 100 98 98 97 96 94 92 90 88 86 85 85 83 82 80 78 76
114 113 113 112 112 113 113 114 114 114 114 114 115 115 115 116 116 117 118 118 118 119 119 119 119 120 120 120 120 120 120 120 121 121 121 121 121 122 122 122 122 121 121 121 120 120 120 120 120 120 119 119 119 118 118 117 117 117 116 116 114 112 109 107 104 102 101 99 97 95 94 94 93 91 89 87 85 84 83 82 80 78 77 75 73
113 113 112 112 113 113 113 114 114 115 115 115 116 116 116 117 117 118 118 118 118 118 118 119 119 119 119 119 119 119 120 120 120 121 121 121 121 121 121 121 120 120 120 120 120 120 120 120 120 120 120 119 118 118 117 117 116 116 115 113 111 109 106 104 102 100 98 96 94 93 91 90 89 88 86 85 83 81 80 79 77 75 74 73 71
111 111 112 112 112 113 113 113 114 114 115 116 116 116 117 117 117 117 117 117 117 117 117 118 118 118 118 119 119 119 120 120 120 120 120 120 120 120 120 119 119 119 119 120 120 120 120 120 120 120 120 119 118 117 117 116 114 113 111 109 108 106 103 101 99 97 95 94 92 90 89 87 86 85 84 82 81 79 78 76 74 73 72 71 69
110 110 110 111 111 111 112 113 113 114 114 115 115 115 115 115 115 115 115 116 116 116 116 117 117 118 118 119 119 120 120 120 120 120 119 119 119 119 119 119 119 120 120 120 120 120 120 120 120 120 119 118 117 116 115 113 111 109 107 105 104 103 101 99 97 95 93 92 90 88 86 85 83 82 81 80 78 77 75 73 72 71 70 69 67
108 108 108 109 109 110 110 111 111 111 112 112 112 112 113 113 113 113 114 114 115 115 116 117 118 118 119 119 119 119 119 119 119 119 118 118 119 119 119 120 120 120 120 120 120 120 120 120 120 119 118 117 115 113 111 109 107 105 104 102 101 100 98 96 94 93 91 90 88 86 84 83 81 80 79 78 76 74 73 71 70 69 68 67 65
107 106 106 107 107 107 107 108 108 108 109 109 109 110 111 111 112 112 113 114 115 116 116 117 118 118 118 118 118 118 118 118 118 119 119 119 120 120 120 120 121 121 121 121 121 121 120 119 118 117 115 114 112 110 108 106 104 102 101 99 98 96 95 94 93 91 90 88 86 84 82 81 80 78 76 75 73 72 71 70 68 66 66 65 63
106 106 105 105 105 105 105 105 106 106 107 107 108 109 110 110 111 112 113 114 115 116 116 116 117 117 117 117 117 118 118 119 119 120 120 120 120 120 120 120 120 120 121 121 121 120 119 117 116 114 112 110 108 106 105 103 101 99 98 96 95 93 92 92 90 89 87 86 84 83 81 80 78 76 74 73 72 70 69 68 66 64 63 62 61
105 105 104 104 104 104 104 105 105 106 106 107 108 109 110 110 111 112 113 114 114 115 115 115 116 116 116 117 118 118 119 120 120 120 120 120 120 120 120 120 120 120 120 120 119 117 116 114 112 111 109 107 105 104 102 100 98 96 95 94 92 91 90 89 88 86 85 84 83 81 79 78 76 74 73 71 70 69 67 66 64 62 61 60 59
104 104 103 103 104 104 104 105 105 106 106 107 108 109 109 110 110 111 112 113 113 114 114 115 116 116 117 118 118 119 119 120 120 120 120 120 120 120 120 120 119 119 118 116 115 114 112 111 109 108 106 105 103 101 99 97 95 94 93 92 90 88 87 86 85 83 82 81 80 79 77 76 75 73 72 70 69 67 65 64 62 61 59 58 57
Wind_Direction
285 284 284 284 284 285 285 286 286 286 286 286 286 286 287 287 288 288 289 290 291 292 293 293 293 292 292 293 294 295 296 297 298 298 299 299 299 300 300 301 302 302 302 302 302 302 302 304 304 302 299 297 296 294 292 292 291 291 291 290 290 289 289 290 290 290 291 291 292 293 293 293 294 294 294 295 295 296 296 297 297 297 298 298 298
284 283 284 284 284 284 283 283 283 284 285 285 286 286 286 286 286 286 287 288 289 290 292 293 293 293 292 293 294 295 296 297 297 298 298 299 299 299 300 300 301 302 302 301 301 301 301 302 302 299 296 294 293 292 291 291 291 291 291 290 290 290 290 291 291 291 292 293 293 294 295 295 295 295 296 296 297 297 297 297 298 298 299 300 300
283 283 284 284 283 283 282 282 282 282 283 284 284 285 285 285 284 285 285 286 287 288 290 292 293 293 293 294 295 296 296 297 297 298 298 298 298 298 299 299 300 301 301 301 300 300 301 301 300 297 294 292 292 291 291 292 292 292 291 291 291 291 292 292 293 293 294 295 296 296 296 296 297 297 297 298 298 298 298 299 300 300 301 301 302
282 282 282 282 281 281 281 281 281 281 282 282 283 283 284 284 284 285 285 286 287 288 289 291 292 293 294 295 296 296 296 296 297 297 297 297 297 297 297 298 299 300 301 300 300 300 300 300 298 295 293 291 290 290 291 291 291 291 292 292 292 293 293 294 295 295 296 297 297 297 297 298 298 298 298 298 299 300 300 301 302 302 302 302 303
280 280 280 280 280 280 280 280 280 281 282 282 283 283 284 284 284 285 285 286 286 287 288 289 290 292 293 294 295 295 295 295 295 295 295 295 295 296 296 297 298 299 300 299 300 300 300 298 296 293 291 290 290 290 290 291 291 291 292 292 293 293 294 295 296 296 297 298 298 299 299 299 299 299 299 300 301 302 302 302 303 303 303 303 304
278 279 279 279 279 279 280 280 281 282 283 283 283 284 284 284 285 285 285 286 286 286 287 288 288 289 290 291 292 293 294 294 294 294 294 294 294 295 296 297 298 299 299 299 299 299 297 295 294 292 291 290 290 290 290 290 290 290 291 292 293 294 295 296 297 298 299 299 300 300 300 300 300 301 301 302 302 303 302 302 303 303 303 304 305
279 279 280 280 280 280 281 282 283 283 283 283 284 284 284 284 285 285 285 285 285 285 286 286 286 287 288 290 291 292 293 293 293 293 293 293 294 294 295 296 297 298 298 298 298 296 294 293 291 291 290 290 290 290 290 290 290 291 291 292 294 295 296 298 299 299 300 300 300 300 300 301 302 302 302 302 302 302 302 302 303 304 304 305 306
282 282 281 281 281 281 282 282 283 283 283 283 283 284 284 284 284 284 284 284 284 284 284 285 285 286 288 289 290 291 291 292 292 292 292 293 293 294 295 295 296 296 297 296 295 294 292 291 289 289 289 290 290 290 290 290 291 292 293 295 296 298 299 299 300 300 300 300 300 301 301 302 303 303 302 302 302 302 302 303 304 305 305 306 307
283 283 283 283 282 282 282 282 282 282 282 282 282 283 283 283 283 283 283 283 283 283 283 284 285 287 288 289 289 290 290 290 291 291 292 292 293 293 294 295 295 295 294 294 293 292 291 290 289 289 290 290 291 291 292 293 294 296 297 298 299 300 300 300 300 300 301 301 301 301 302 303 303 302 302 302 302 302 303 304 305 305 306 307 308
282 282 283 283 283 283 282 282 282 282 282 281 281 281 281 281 281 282 282 282 282 283 283 284 285 286 287 288 289 289 289 290 290 290 291 291 292 292 293 293 293 293 292 292 291 291 291 291 290 290 291 291 291 292 294 295 296 297 298 299 300 301 302 302 302 302 302 302 302 302 303 303 303 302 302 303 303 303 304 305 305 306 307 307 308
280 281 282 282 283 283 282 282 282 282 281 281 280 280 280 280 280 281 281 282 283 283 283 284 284 286 287 288 288 289 289 290 290 290 290 291 291 292 292 292 292 291 291 291 291 291 291 291 290 291 291 291 292 293 294 295 296 297 298 300 302 303 303 303 303 302 302 302 302 303 303 303 303 303 304 304 304 305 305 306 306 306 306 306 307
281 281 282 282 282 282 282 281 281 281 281 281 281 280 280 280 280 280 281 282 283 283 284 284 285 286 287 288 288 289 289 289 289 290 290 290 290 291 291 290 290 290 290 290 290 290 291 291 291 291 292 293 294 295 296 297 298 300 301 302 303 304 303 303 303 302 302 302 302 302 302 303 303 304 305 305 305 305 306 306 306 306 306 307 308
281 281 281 281 281 281 281 281 281 281 280 281 281 280 280 280 280 280 281 282 283 283 284 285 286 286 287 287 288 288 288 288 288 289 289 289 289 289 289 289 289 289 289 290 290 291 291 292 293 294 294 295 296 297 299 300 301 301 302 303 304 304 304 303 302 301 300 300 301 302 304 304 304 305 305 305 305 305 305 305 305 306 307 308 309
280 280 280 280 280 280 280 280 280 280 280 280 280 280 280 280 280 280 281 282 283 283 284 284 285 286 287 287 287 287 287 287 288 288 288 288 287 287 287 288 288 288 289 290 291 292 293 294 295 296 297 297 298 299 300 301 301 302 303 304 304 304 303 302 300 299 300 301 303 304 305 305 305 305 305 304 304 305 305 306 307 308 308 308 308
278 278 278 279 279 279 279 279 279 279 279 279 279 279 279 279 280 281 281 282 282 283 284 284 285 286 286 286 286 286 286 286 287 287 286 286 286 286 286 287 287 288 289 290 292 293 294 295 296 297 298 298 299 299 300 301 302 303 303 304 303 302 301 300 299 300 301 303 304 304 304 304 304 304 305 305 306 307 307 308 308 308 307 307 307
277 277 277 277 277 278 278 278 278 278 278 278 278 278 279 279 280 281 282 282 283 283 284 285 285 285 285 285 285 285 285 285 286 286 286 286 286 286 286 287 288 289 290 291 293 294 295 296 297 298 298 299 300 301 302 302 303 303 303 302 301 301 300 300 301 302 303 304 304 304 304 304 305 306 307 307 308 308 307 307 307 306 306 306 306
276 276 276 276 276 276 277 277 277 277 278 278 278 278 279 280 281 281 282 282 283 284 284 284 284 285 284 284 284 284 285 285 285 285 285 285 285 286 286 287 288 289 291 292 294 295 296 297 298 299 300 301 301 302 303 303 303 302 301 301 300 301 301 302 303 303 303 303 304 304 305 306 307 307 307 307 307 306 305 305 305 304 304 305 305
275 275 275 275 275 276 276 277 277 277 278 278 279 279 280 281 281 282 282 282 283 283 283 284 284 284 284 284 283 283 284 284 284 284 284 285 286 287 288 289 290 291 292 294 295 296 298 299 300 301 302 302 302 303 302 302 301 301 300 300 300 301 302 302 303 303 303 304 305 306 306 307 307 307 307 306 306 305 305 305 305 304 305 305 305
275 275 275 276 276 276 277 277 277 277 278 278 279 279 280 280 281 281 281 282 282 282 282 283 283 283 283 283 283 283 283 284 284 285 286 287 287 289 290 291 292 294 295 296 298 299 300 301 301 302 302 302 302 302 301 300 300 299 299 300 300 301 301 302 303 303 304 305 305 306 306 306 306 306 306 305 305 305 305 305 305 306 306 306 307
275 275 275 275 275 276 276 276 277 277 278 278 279 279 279 280 280 280 281 281 281 281 281 281 282 282 282 282 282 283 284 284 285 286 287 288 289 291 292 294 295 296 298 299 300 300 301 301 301 301 301 301 300 300 299 299 299 299 300 300 301 301 302 302 303 303 304 304 304 305 305 305 305 305 305 305 305 305 305 306 306 306 307 307 307
274 274 274 275 275 275 275 276 276 277 277 278 278 279 279 279 279 279 279 279 279 280 280 280 281 281 282 283 284 284 285 286 287 288 289 290 291 293 294 296 297 298 299 299 300 300 300 300 300 300 300 299 299 298 298 298 299 300 300 301 301 302 302 302 303 303 303 304 304 304 305 304 304 304 304 305 305 305 305 306 306 306 306 306 306
273 274 274 275 275 276 276 277 277 277 278 278 279 279 279 279 279 279 279 280 280 280 281 281 282 283 284 285 286 287 288 289 290 291 292 293 294 296 297 298 298 299 299 299 299 299 299 299 299 298 298 298 298 298 298 299 300 301 301 302 302 302 302 302 302 303 303 303 304 304 304 304 304 304 304 304 304 304 304 304 305 305 305 305 305
274 275 275 276 277 277 278 278 278 279 279 280 280 281 281 281 281 281 282 282 282 283 283 284 284 285 286 287 289 290 291 292 294 295 296 296 297 298 298 298 298 298 298 298 298 298 298 298 298 297 297 298 298 299 300 301 301 302 302 302 302 302 302 302 302 303 303 304 304 304 304 304 304 303 303 303 303 303 303 303 303 303 303 304 304
275 276 276 277 278 279 280 280 280 281 281 282 282 283 283 283 284 284 284 284 285 285 286 287 288 289 290 291 293 294 295 296 297 297 298 298 298 298 298 297 297 297 297 297 297 297 297 297 297 297 298 299 300 300 301 301 301 301 301 301 301 301 302 302 303 303 304 304 304 304 304 304 303 303 303 303 303 302 302 302 302 303 303 303 304
277 278 278 279 280 281 282 282 282 282 283 283 283 284 284 285 286 286 287 287 288 289 290 291 292 293 294 294 295 296 296 297 297 297 297 297 296 296 296 296 296 296 296 296 296 296 296 296 297 298 299 300 300 301 301 300 300 300 300 301 301 302 302 303 303 303 304 304 304 304 304 303 303 303 303 303 302 302 302 303 303 303 303 303 303
280 281 281 282 282 283 283 283 283 284 284 284 285 286 287 288 289 290 291 292 292 293 294 294 294 295 295 295 295 295 295 295 295 295 295 295 294 294 294 294 295 295 295 295 295 295 296 296 298 299 299 300 300 300 300 300 300 300 300 301 301 302 302 302 303 303 303 303 303 303 303 303 302 302 302 302 302 302 302 302 303 302 302 302 303
283 283 284 285 285 285 285 286 286 286 287 288 289 290 290 291 292 293 293 293 293 293 293 294 294 293 293 293 293 293 293 293 293 293 293 293 293 293 293 294 294 294 294 294 295 295 296 298 298 299 299 299 299 299 299 300 300 300 300 301 301 301 301 302 302 302 303 303 303 303 303 302 302 302 302 302 302 302 302 302 302 302 302 303 303
286 287 287 288 288 288 288 289 289 290 290 291 291 291 291 291 292 292 291 291 291 291 291 291 291 291 291 291 291 291 291 291 291 292 292 292 292 293 293 293 293 293 294 295 296 296 297 298 298 298 298 299 299 299 299 299 300 300 300 300 300 301 301 302 302 302 302 302 303 303 303 303 303 303 303 303 303 303 303 303 303 303 303 303 304
286 286 286 286 287 287 287 288 288 289 289 290 290 290 289 289 289 289 289 289 288 288 288 288 288 288 289 289 289 289 290 290 291 291 291 292 292 292 293 293 293 294 295 296 297 297 298 298 298 298 298 298 299 299 299 299 299 299 299 300 300 301 301 301 302 302 302 302 303 303 303 302 302 302 302 302 302 303 303 303 303 303 304 304 305
283 283 283 283 284 284 285 285 286 286 287 287 287 287 287 287 287 287 287 287 287 287 287 287 287 287 288 288 289 289 290 290 290 291 291 291 292 292 293 293 294 295 296 297 297 297 297 297 298 298 298 298 298 298 298 298 299 299 299 300 300 301 301 301 302 302 302 302 303 303 302 302 302 302 302 302 302 302 303 303 303 304 304 305 305
280 281 281 282 282 283 284 284 284 284 285 284 285 285 285 285 285 285 285 285 286 286 286 287 287 287 288 288 289 289 290 290 290 291 291 292 292 293 294 294 295 295 296 296 296 297 297 297 297 298 298 298 298 298 298 299 299 299 300 300 301 301 301 301 302 302 302 302 303 302 302 302 302 302 302 302 302 302 302 303 303 304 304 305 305
280 280 281 281 282 282 283 283 283 283 283 284 284 284 284 284 285 285 285 286 286 286 287 287 287 288 288 289 289 289 290 290 290 291 291 292 293 293 294 294 295 295 295 296 296 296 297 297 297 297 298 298 298 298 298 299 299 300 300 300 300 301 301 301 302 302 302 303 302 302 302 301 302 302 302 302 302 302 303 303 303 304 304 305 305
279 279 280 280 281 281 282 282 282 283 283 283 283 284 284 285 285 285 286 286 287 287 287 287 288 288 288 288 289 289 289 290 290 291 292 292 293 293 294 294 295 295 295 296 296 296 297 297 297 297 297 298 298 298 298 299 299 300 300 300 300 301 301 301 302 302 302 302 302 302 301 301 301 302 302 302 302 302 303 303 304 304 304 305 305
279 279 279 279 280 280 280 281 281 282 282 282 283 283 284 284 285 285 285 285 286 286 287 287 287 288 288 288 289 289 290 290 291 292 292 292 293 293 294 294 294 295 295 295 296 296 296 297 297 297 297 297 298 298 298 299 299 299 300 300 300 301 301 302 302 302 302 302 302 301 301 301 302 302 302 302 302 303 303 304 304 304 305 305 305
279 279 280 280 280 280 280 280 281 281 282 282 283 283 283 283 284 284 284 285 285 286 286 287 287 287 288 288 289 289 290 291 291 292 292 292 293 293 294 294 295 295 295 296 296 296 296 296 296 297 297 297 298 298 298 299 299 299 299 300 300 301 301 302 302 302 302 302 301 301 301 302 302 302 302 302 303 303 304 304 304 305 305 305 305
278 279 279 279 280 280 281 281 281 282 282 282 283 283 283 283 284 284 285 285 286 286 286 287 287 288 288 289 289 290 290 291 291 291 292 292 293 294 294 295 295 296 296 296 296 296 296 296 296 297 297 297 298 298 298 299 299 299 299 300 300 301 301 302 302 302 302 302 301 302 302 302 302 302 303 303 303 304 304 304 305 305 305 305 305
278 278 279 279 280 280 281 282 282 282 282 283 283 284 284 285 285 285 286 286 286 287 287 288 288 289 289 289 290 290 291 291 291 292 292 293 294 294 294 295 295 295 295 295 295 295 296 296 297 297 297 298 298 298 299 299 299 299 300 300 300 301 302 302 302 302 302 302 302 302 303 302 302 303 303 303 304 304 304 304 305 305 305 305 305
278 278 279 280 280 280 281 281 282 283 283 284 284 284 285 285 285 286 286 286 287 287 288 288 288 289 289 290 290 291 292 292 293 293 293 294 294 294 294 294 294 294 294 295 295 296 296 296 297 297 297 298 298 298 298 299 299 299 300 300 301 302 302 303 303 302 302 302 302 302 302 302 302 303 303 304 304 304 304 304 304 304 304 304 304
278 279 279 280 280 281 281 282 282 283 283 284 284 285 285 285 285 286 286 287 287 288 288 288 289 289 290 290 291 291 292 292 293 293 293 294 294 294 294 294 294 294 295 295 295 296 296 296 297 297 297 298 298 298 298 299 299 300 300 301 302 302 303 303 302 302 302 302 302 302 302 302 303 303 303 304 304 304 304 304 304 304 304 304 304
280 280 281 281 281 282 282 283 283 283 284 284 284 285 285 285 286 286 287 287 287 288 288 289 289 289 290 290 291 291 291 292 292 292 293 293 293 293 294 294 294 294 295 295 295 295 296 296 296 297 297 297 297 298 298 299 300 301 301 302 302 303 303 302 302 302 302 302 302 302 302 303 303 303 303 303 304 304 304 303 304 304 304 304 304
280 281 281 282 283 283 284 284 284 284 284 284 285 285 286 286 286 287 287 287 288 288 288 289 289 289 290 290 290 291 291 291 291 292 292 292 293 293 294 294 294 294 294 295 295 295 295 296 296 296 297 297 297 298 299 300 301 302 302 302 302 302 302 301 302 302 302 302 302 302 303 303 303 303 303 303 303 303 303 303 303 304 304 303 303
280 280 281 282 283 283 283 284 284 284 285 285 285 285 285 286 286 286 287 287 287 288 288 288 288 289 289 289 289 290 290 291 291 292 292 292 293 293 293 293 293 294 294 294 295 295 295 295 296 296 297 297 298 299 300 301 301 302 302 302 302 301 301 302 302 302 302 302 302 302 303 302 303 303 303 303 303 303 303 303 303 303 303 303 303
280 280 281 282 282 282 283 283 283 284 284 285 285 285 285 285 286 286 286 286 286 287 287 287 288 288 288 289 289 290 290 291 291 291 292 292 292 292 292 293 293 293 294 294 294 295 295 296 296 297 298 298 299 300 301 301 302 302 302 301 301 301 301 302 302 302 302 302 302 302 302 302 302 302 302 302 302 303 302 302 303 303 303 303 303
279 279 280 280 281 281 281 282 282 283 283 284 284 284 285 285 285 285 285 285 286 286 287 287 287 288 288 289 289 290 290 290 290 291 291 291 291 292 292 292 293 293 294 294 294 295 296 296 297 298 299 299 300 301 301 302 302 301 301 301 301 301 302 302 302 302 302 302 302 302 302 302 302 301 301 302 302 302 302 302 303 303 303 303 303
278 279 279 279 280 280 280 281 281 282 282 282 283 283 283 283 284 284 284 285 285 286 287 287 288 288 288 289 289 289 289 290 290 290 290 291 291 291 292 292 293 293 294 294 295 296 297 298 298 299 299 300 301 301 301 301 300 300 300 301 301 301 301 301 301 301 301 302 302 302 301 301 301 301 301 301 302 302 302 302 302 303 303 303 303
277 277 278 278 278 279 279 279 279 280 280 281 281 281 282 282 283 283 284 285 285 286 287 287 287 288 288 288 288 289 289 289 290 290 290 291 291 292 292 293 294 294 295 296 296 297 298 298 299 299 300 300 300 300 300 300 300 300 301 301 301 301 301 301 301 301 301 301 301 301 301 300 300 300 301 301 301 302 302 302 302 302 303 303 303
276 276 276 276 276 277 277 277 278 278 279 279 280 281 281 282 283 284 284 285 285 286 286 287 287 287 287 288 288 289 289 289 290 290 291 292 292 293 293 294 294 295 296 297 297 298 298 299 299 299 300 300 299 299 299 300 300 300 300 300 300 300 300 300 301 301 301 301 300 300 300 300 300 300 300 301 301 301 301 302 302 302 302 302 302
276 276 276 276 276 277 277 278 278 278 279 280 280 281 282 283 283 284 285 285 285 286 286 286 286 287 287 288 288 289 290 290 291 291 292 292 293 293 294 295 296 296 297 298 298 298 298 299 299 299 299 299 299 299 299 300 300 300 300 300 300 300 300 300 300 300 300 300 299 300 300 300 300 300 300 300 301 301 301 301 302 302 302 301 301
276 276 276 277 277 277 278 278 279 279 280 281 281 282 283 283 284 284 285 285 285 285 286 286 287 288 288 289 290 290 291 291 292 292 292 293 293 294 295 296 296 297 297 297 298 298 298 298 298 298 298 299 299 299 299 299 299 299 299 299 299 299 299 299 299 299 299 299 299 299 300 300 300 300 300 300 300 301 301 301 301 301 301 301 301
276 276 277 277 278 278 279 279 280 280 281 281 282 282 283 283 284 284 284 285 285 286 286 287 288 288 289 290 290 290 291 291 292 292 293 294 294 295 296 296 296 297 297 297 297 297 297 297 298 298 298 299 299 299 299 298 298 299 298 298 298 298 298 298 298 298 298 298 299 299 300 300 300 300 300 300 300 300 300 300 300 300 300 300 300
276 276 277 278 278 279 279 280 280 281 281 282 282 282 283 283 284 284 285 285 286 286 287 288 288 289 289 290 290 291 291 292 292 293 294 294 295 295 295 296 296 296 296 296 296 297 297 297 298 298 298 298 298 298 298 298 298 298 298 298 298 298 297 297 297 298 298 298 298 299 299 299 300 300 300 300 299 299 299 300 300 300 299 299 299
Height
10663 10662 10660 10659 10657 10655 10654 10653 10650 10649 10647 10645 10643 10641 10639 10638 10636 10634 10632 10630 10627 10625 10623 10620 10617 10614 10610 10607 10605 10602 10598 10595 10592 10589 10586 10582 10578 10575 10572 10569 10566 10563 10559 10556 10553 10549 10545 10542 10538 10533 10529 10524 10519 10514 10508 10504 10500 10496 10492 10486 10481 10475 10471 10468 10464 10461 10458 10455 10449 10443 10436 10431 10425 10419 10412 10407 10401 10396 10388 10380 10374 10369 10362 10354 10346
10656 10655 10653 10652 10650 10648 10647 10645 10643 10641 10639 10637 10636 10634 10633 10631 10628 10626 10624 10622 10619 10617 10615 10612 10609 10606 10602 10599 10596 10593 10590 10586 10583 10580 10577 10573 10569 10566 10563 10560 10557 10553 10550 10547 10543 10540 10536 10532 10528 10524 10519 10514 10509 10503 10498 10494 10491 10486 10480 10475 10469 10464 10459 10455 10452 10449 10445 10442 10438 10430 10422 10415 10409 10403 10397 10392 10386 10381 10375 10367 10360 10353 10345 10337 10329
10649 10648 10646 10645 10643 10640 10638 10636 10635 10633 10631 10629 10628 10626 10625 10623 10620 10618 10616 10613 10611 10608 10606 10604 10601 10597 10593 10590 10587 10584 10581 10577 10574 10571 10567 10564 10560 10556 10553 10550 10548 10544 10541 10537 10534 10530 10527 10523 10518 10514 10509 10504 10498 10492 10488 10484 10479 10474 10468 10463 10458 10453 10448 10443 10440 10437 10432 10428 10423 10417 10409 10401 10393 10386 10380 10374 10368 10364 10359 10352 10345 10338 10330 10322 10314
10641 10640 10638 10637 10634 10632 10630 10627 10626 10625 10623 10621 10620 10617 10616 10614 10611 10609 10607 10605 10602 10599 10597 10595 10592 10588 10584 10581 10578 10575 10571 10568 10564 10561 10558 10554 10550 10547 10544 10541 10538 10535 10531 10527 10524 10520 10516 10512 10508 10503 10498 10493 10487 10482 10477 10473 10467 10461 10456 10451 10445 10441 10436 10431 10426 10423 10420 10415 10408 10401 10394 10387 10379 10371 10364 10358 10351 10345 10340 10334 10328 10322 10314 10306 10299
10631 10630 10629 10628 10626 10623 10621 10619 10618 10617 10615 10613 10611 10609 10607 10604 10602 10600 10598 10596 10593 10590 10588 10586 10583 10580 10576 10573 10569 10565 10562 10559 10555 10552 10548 10544 10541 10537 10534 10531 10528 10525 10521 10517 10513 10510 10506 10501 10497 10492 10487 10481 10476 10471 10466 10460 10455 10449 10443 10438 10433 10428 10424 10419 10414 10409 10405 10400 10394 10386 10378 10371 10364 10356 10347 10341 10335 10329 10322 10316 10311 10305 10298 10290 10283
10622 10621 10620 10619 10617 10614 10612 10610 10609 10608 10606 10604 10602 10600 10598 10595 10593 10592 10589 10587 10584 10581 10579 10576 10574 10572 10569 10565 10561 10556 10553 10550 10547 10543 10539 10535 10531 10527 10524 10521 10517 10514 10510 10506 10503 10499 10495 10491 10486 10481 10475 10470 10465 10460 10454 10448 10442 10436 10431 10426 10421 10417 10412 10407 10402 10396 10389 10384 10378 10371 10363 10356 10349 10341 10332 10325 10320 10313 10306 10301 10296 10289 10281 10276 10270
10614 10613 10612 10611 10608 10605 10603 10601 10600 10599 10597 10595 10593 10591 10589 10586 10585 10583 10580 10578 10575 10572 10570 10567 10564 10562 10560 10557 10553 10548 10544 10540 10537 10533 10528 10525 10521 10517 10514 10511 10507 10503 10499 10496 10492 10489 10484 10480 10475 10469 10463 10459 10453 10448 10442 10436 10430 10424 10419 10414 10409 10404 10399 10393 10388 10382 10375 10369 10362 10355 10347 10341 10335 10327 10318 10311 10305 10298 10290 10286 10283 10275 10265 10260 10256
10605 10603 10602 10601 10599 10597 10595 10593 10591 10589 10587 10585 10583 10581 10579 10577 10575 10573 10571 10569 10566 10563 10561 10558 10555 10552 10550 10547 10544 10540 10535 10531 10526 10522 10518 10514 10510 10507 10504 10500 10497 10492 10489 10485 10481 10478 10474 10469 10464 10458 10452 10447 10441 10436 10429 10423 10417 10412 10406 10401 10396 10391 10386 10379 10373 10367 10361 10354 10347 10339 10333 10329 10322 10312 10304 10298 10291 10283 10276 10271 10268 10261 10251 10246 10241
10595 10593 10591 10589 10588 10588 10586 10584 10582 10579 10577 10576 10574 10572 10569 10567 10565 10563 10561 10559 10557 10554 10552 10549 10546 10542 10539 10536 10533 10530 10527 10522 10517 10512 10508 10504 10500 10496 10493 10490 10486 10482 10478 10475 10471 10467 10463 10458 10452 10446 10441 10435 10429 10423 10417 10410 10404 10399 10393 10389 10384 10378 10371 10364 10357 10351 10345 10339 10332 10325 10320 10316 10308 10298 10290 10283 10275 10268 10262 10255 10251 10246 10238 10233 10229
10587 10584 10581 10579 10577 10576 10574 10572 10571 10569 10567 10566 10564 10562 10560 10557 10555 10553 10551 10549 10546 10544 10542 10540 10537 10533 10529 10526 10522 10519 10516 10512 10507 10502 10498 10494 10490 10486 10483 10479 10475 10471 10468 10464 10460 10456 10452 10447 10441 10435 10429 10422 10416 10411 10405 10398 10392 10386 10382 10378 10372 10364 10357 10349 10343 10336 10329 10324 10318 10312 10308 10303 10293 10282 10274 10268 10259 10252 10247 10239 10233 10229 10223 10219 10218
10578 10576 10573 10570 10568 10565 10563 10562 10560 10558 10556 10554 10553 10553 10551 10548 10545 10543 10541 10538 10536 10533 10531 10529 10527 10524 10520 10516 10512 10508 10504 10500 10496 10491 10488 10484 10479 10475 10472 10468 10464 10460 10457 10453 10449 10445 10441 10435 10430 10423 10416 10410 10404 10399 10392 10386 10379 10374 10370 10366 10360 10351 10343 10336 10329 10321 10313 10309 10305 10300 10294 10287 10279 10268 10257 10250 10244 10238 10231 10224 10217 10212 10208 10204 10202
10569 10567 10564 10561 10559 10556 10554 10552 10550 10548 10546 10544 10542 10542 10540 10537 10535 10533 10530 10528 10525 10522 10519 10517 10515 10513 10510 10506 10502 10498 10494 10490 10485 10480 10476 10473 10469 10464 10461 10457 10453 10449 10445 10441 10438 10434 10429 10423 10418 10411 10404 10398 10392 10386 10380 10373 10367 10361 10358 10354 10348 10339 10329 10321 10315 10307 10300 10296 10294 10289 10279 10269 10264 10256 10242 10232 10229 10223 10216 10209 10203 10197 10193 10188 10183
10559 10556 10553 10551 10549 10546 10543 10542 10541 10539 10536 10534 10532 10530 10528 10526 10524 10522 10520 10517 10515 10512 10509 10506 10503 10500 10498 10494 10491 10487 10483 10479 10475 10470 10465 10461 10458 10454 10449 10446 10442 10437 10433 10430 10426 10421 10416 10411 10404 10398 10392 10386 10379 10373 10367 10361 10354 10349 10344 10340 10334 10326 10316 10308 10300 10292 10287 10284 10281 10276 10265 10251 10247 10243 10230 10218 10213 10209 10202 10195 10188 10181 10175 10171 10167
10547 10544 10542 10540 10537 10534 10533 10532 10530 10528 10526 10524 10522 10519 10517 10515 10513 10511 10509 10507 10504 10501 10498 10496 10492 10488 10485 10483 10480 10476 10472 10467 10464 10460 10455 10450 10447 10443 10439 10434 10430 10425 10422 10418 10414 10409 10404 10397 10391 10386 10379 10373 10366 10360 10354 10348 10342 10336 10330 10325 10320 10313 10305 10296 10286 10279 10274 10270 10265 10260 10250 10238 10230 10226 10217 10206 10198 10192 10185 10179 10173 10165 10158 10155 10153
10535 10533 10531 10529 10526 10523 10521 10520 10519 10517 10515 10514 10512 10509 10506 10503 10501 10499 10497 10495 10493 10490 10487 10485 10481 10477 10474 10471 10468 10465 10461 10457 10453 10449 10444 10439 10435 10431 10427 10423 10418 10414 10410 10406 10402 10397 10391 10385 10379 10373 10366 10360 10353 10347 10341 10335 10329 10323 10317 10311 10306 10300 10293 10282 10272 10266 10262 10256 10249 10244 10236 10227 10217 10209 10202 10191 10181 10173 10165 10160 10157 10149 10141 10140 10140
10523 10521 10520 10518 10515 10512 10510 10508 10507 10505 10503 10502 10500 10497 10494 10492 10490 10488 10485 10483 10480 10477 10475 10472 10469 10466 10463 10460 10457 10454 10450 10447 10443 10438 10433 10428 10424 10419 10416 10411 10407 10403 10398 10394 10390 10384 10378 10372 10366 10359 10352 10346 10340 10334 10328 10322 10317 10311 10305 10299 10293 10287 10279 10267 10258 10252 10247 10242 10236 10230 10223 10215 10205 10195 10186 10176 10166 10158 10150 10147 10144 10135 10126 10124 10125
10511 10509 10508 10506 10504 10502 10499 10496 10495 10493 10491 10490 10488 10485 10483 10481 10478 10475 10473 10471 10468 10465 10463 10460 10458 10455 10452 10448 10445 10442 10439 10436 10432 10426 10422 10418 10413 10407 10403 10399 10395 10390 10386 10382 10377 10371 10365 10359 10352 10345 10338 10332 10326 10320 10314 10309 10304 10298 10291 10286 10280 10273 10263 10253 10245 10239 10232 10226 10221 10213 10206 10198 10189 10181 10174 10165 10156 10147 10139 10135 10132 10123 10114 10112 10111
10499 10498 10497 10495 10492 10490 10487 10485 10483 10481 10479 10478 10476 10473 10471 10468 10466 10463 10461 10459 10456 10453 10451 10448 10446 10443 10440 10436 10433 10430 10428 10425 10420 10414 10411 10407 10401 10396 10391 10387 10382 10377 10373 10368 10363 10357 10351 10344 10337 10331 10325 10319 10313 10306 10300 10295 10291 10284 10277 10271 10266 10258 10248 10241 10235 10227 10218 10212 10205 10197 10190 10182 10173 10166 10160 10151 10142 10133 10124 10118 10113 10105 10097 10093 10088
10487 10486 10484 10482 10480 10478 10476 10473 10471 10469 10467 10466 10464 10462 10459 10457 10454 10452 10449 10447 10444 10441 10439 10436 10434 10431 10428 10424 10421 10418 10416 10414 10408 10403 10399 10394 10389 10384 10379 10374 10369 10364 10360 10355 10349 10343 10337 10331 10324 10318 10312 10306 10300 10293 10286 10281 10276 10270 10262 10256 10251 10244 10235 10228 10222 10214 10207 10200 10194 10187 10180 10172 10163 10156 10149 10139 10129 10118 10108 10101 10093 10084 10077 10071 10065
10475 10473 10471 10469 10467 10465 10463 10461 10459 10457 10455 10454 10452 10450 10448 10445 10443 10440 10437 10435 10433 10430 10427 10425 10422 10419 10416 10412 10409 10406 10403 10400 10396 10391 10387 10382 10376 10371 10366 10361 10356 10351 10347 10342 10336 10330 10324 10318 10312 10305 10299 10293 10287 10280 10273 10267 10261 10254 10246 10239 10234 10228 10221 10214 10208 10201 10195 10189 10183 10177 10170 10162 10154 10146 10138 10130 10120 10108 10098 10088 10079 10069 10060 10053 10048
10462 10459 10458 10456 10454 10453 10451 10449 10448 10446 10444 10442 10440 10438 10436 10433 10431 10428 10426 10424 10421 10418 10416 10413 10410 10407 10403 10399 10396 10392 10389 10386 10381 10377 10373 10368 10363 10358 10353 10348 10343 10338 10334 10329 10323 10318 10312 10306 10299 10292 10286 10280 10273 10267 10259 10252 10245 10238 10230 10223 10217 10211 10206 10201 10195 10188 10182 10176 10170 10164 10157 10150 10143 10135 10127 10119 10109 10099 10090 10081 10070 10061 10052 10043 10036
10448 10446 10445 10443 10442 10440 10439 10437 10435 10433 10431 10430 10428 10425 10423 10420 10418 10416 10413 10411 10408 10405 10403 10399 10396 10393 10389 10385 10382 10378 10374 10370 10366 10362 10358 10354 10349 10344 10340 10335 10330 10325 10321 10315 10310 10304 10299 10292 10286 10279 10272 10266 10259 10251 10244 10236 10229 10221 10214 10208 10201 10196 10190 10185 10181 10175 10169 10163 10156 10150 10144 10137 10130 10123 10116 10109 10101 10092 10083 10074 10063 10053 10044 10036 10027
10436 10434 10432 10430 10429 10427 10425 10424 10422 10420 10418 10416 10414 10411 10409 10406 10404 10402 10399 10397 10395 10391 10388 10385 10381 10378 10374 10370 10366 10363 10359 10355 10351 10347 10343 10339 10335 10330 10326 10321 10316 10312 10307 10301 10296 10290 10284 10278 10271 10264 10257 10250 10243 10235 10227 10220 10213 10206 10199 10193 10186 10180 10174 10169 10164 10158 10153 10148 10141 10135 10128 10121 10114 10107 10101 10095 10089 10082 10074 10067 10058 10047 10037 10028 10020
10422 10420 10418 10416 10415 10413 10411 10409 10407 10405 10403 10401 10399 10397 10394 10392 10389 10387 10385 10382 10379 10376 10373 10369 10365 10362 10358 10354 10351 10347 10344 10340 10336 10332 10328 10325 10321 10317 10312 10308 10303 10297 10292 10287 10282 10276 10270 10262 10255 10248 10241 10234 10227 10219 10213 10206 10199 10192 10185 10178 10172 10165 10159 10153 10147 10141 10136 10131 10125 10119 10112 10104 10097 10090 10083 10077 10071 10065 10059 10054 10047 10037 10027 10019 10011
10408 10406 10404 10402 10401 10399 10397 10395 10392 10391 10388 10386 10384 10381 10379 10376 10374 10371 10369 10366 10363 10360 10357 10353 10350 10346 10343 10340 10336 10333 10329 10326 10322 10319 10315 10311 10308 10303 10299 10294 10288 10283 10278 10273 10267 10261 10254 10247 10239 10232 10225 10219 10212 10205 10198 10192 10185 10179 10171 10164 10157 10150 10144 10138 10132 10126 10121 10115 10109 10103 10096 10088 10081 10073 10066 10060 10054 10046 10040 10036 10031 10022 10013 10007 10000
10392 10390 10389 10388 10385 10383 10381 10378 10376 10374 10372 10370 10368 10365 10363 10361 10358 10355 10353 10350 10347 10345 10341 10338 10335 10332 10329 10325 10322 10318 10315 10312 10309 10306 10302 10298 10294 10289 10285 10279 10274 10269 10263 10258 10253 10246 10239 10232 10224 10217 10211 10204 10198 10191 10185 10178 10171 10164 10157 10150 10143 10136 10130 10124 10118 10112 10106 10100 10094 10088 10081 10073 10065 10058 10051 10044 10038 10030 10023 10019 10015 10008 10000 9993 9988
10376 10374 10373 10370 10367 10365 10363 10361 10359 10358 10356 10354 10353 10350 10348 10346 10344 10342 10339 10337 10334 10331 10328 10325 10322 10318 10315 10312 10308 10305 10302 10298 10295 10291 10287 10283 10279 10274 10270 10264 10259 10254 10248 10243 10237 10230 10223 10216 10210 10203 10197 10190 10184 10177 10170 10164 10157 10150 10143 10136 10129 10123 10116 10110 10104 10098 10092 10086 10079 10073 10065 10057 10049 10042 10034 10027 10021 10014 10007 10001 9998 9993 9985 9978 9973
10359 10358 10356 10353 10350 10349 10347 10346 10344 10343 10342 10341 10340 10338 10337 10334 10332 10330 10327 10325 10322 10319 10316 10313 10309 10306 10303 10299 10295 10292 10288 10284 10280 10276 10272 10268 10263 10259 10254 10248 10243 10238 10232 10227 10221 10214 10208 10201 10195 10189 10183 10176 10169 10163 10156 10149 10143 10136 10130 10123 10116 10109 10103 10097 10090 10083 10076 10070 10063 10056 10049 10041 10033 10025 10018 10011 10004 9996 9990 9983 9979 9975 9969 9962 9956
10346 10344 10342 10340 10338 10336 10335 10334 10333 10331 10330 10329 10327 10325 10324 10322 10319 10317 10314 10311 10309 10306 10303 10299 10296 10292 10289 10285 10282 10278 10273 10269 10265 10261 10256 10252 10247 10242 10237 10231 10226 10221 10216 10210 10205 10198 10192 10186 10181 10175 10169 10162 10155 10148 10141 10135 10129 10122 10116 10110 10102 10096 10089 10083 10077 10070 10062 10055 10048 10040 10033 10025 10018 10011 10004 9997 9990 9981 9974 9966 9961 9956 9951 9945 9940
10333 10331 10329 10327 10325 10324 10323 10322 10321 10320 10318 10317 10314 10312 10310 10307 10305 10303 10300 10297 10295 10292 10288 10285 10281 10278 10274 10270 10266 10262 10258 10253 10249 10245 10240 10236 10231 10226 10220 10214 10209 10204 10199 10194 10189 10183 10177 10171 10165 10160 10154 10147 10141 10134 10127 10120 10113 10107 10101 10095 10088 10081 10075 10068 10062 10055 10048 10040 10033 10025 10017 10009 10002 9996 9990 9983 9977 9969 9960 9953 9946 9940 9935 9930 9924
10318 10317 10315 10313 10311 10310 10309 10308 10307 10306 10304 10302 10300 10298 10295 10293 10290 10288 10285 10282 10279 10276 10272 10269 10265 10261 10258 10254 10249 10245 10241 10237 10232 10228 10224 10219 10214 10209 10203 10197 10192 10188 10183 10179 10173 10167 10162 10156 10150 10144 10138 10132 10126 10119 10112 10105 10097 10091 10084 10078 10072 10066 10059 10053 10046 10040 10032 10025 10017 10009 10001 9993 9986 9981 9975 9968 9962 9955 9947 9940 9933 9927 9921 9915 9910
10303 10302 10300 10299 10297 10296 10294 10293 10292 10290 10288 10286 10284 10282 10280 10277 10274 10271 10268 10265 10262 10258 10255 10252 10248 10244 10241 10237 10233 10228 10224 10220 10216 10211 10207 10202 10197 10193 10187 10181 10176 10171 10167 10163 10158 10152 10146 10140 10134 10128 10122 10116 10110 10103 10097 10089 10082 10075 10069 10062 10056 10050 10044 10037 10031 10024 10017 10010 10002 9994 9986 9978 9972 9966 9959 9953 9946 9940 9933 9927 9921 9914 9909 9902 9896
10288 10287 10286 10284 10283 10281 10279 10277 10276 10274 10272 10270 10267 10265 10263 10260 10257 10254 10250 10247 10244 10241 10237 10234 10231 10228 10224 10220 10216 10211 10207 10203 10199 10195 10190 10186 10181 10176 10171 10165 10160 10155 10151 10146 10141 10136 10130 10124 10118 10112 10106 10100 10094 10088 10081 10074 10067 10060 10053 10047 10041 10035 10028 10022 10016 10009 10002 9995 9988 9979 9971 9964 9958 9952 9945 9938 9931 9925 9919 9914 9907 9901 9896 9890 9884
10270 10270 10269 10269 10267 10266 10264 10262 10260 10258 10256 10254 10252 10249 10247 10244 10241 10238 10234 10231 10228 10224 10221 10218 10215 10212 10208 10204 10199 10195 10191 10187 10183 10178 10174 10169 10165 10161 10155 10150 10145 10140 10135 10130 10125 10119 10114 10108 10102 10096 10090 10084 10078 10073 10066 10060 10052 10045 10039 10032 10026 10020 10014 10007 10001 9994 9987 9980 9973 9964 9956 9949 9944 9938 9931 9924 9917 9911 9905 9900 9894 9888 9882 9877 9872
10252 10251 10251 10251 10250 10249 10248 10246 10244 10243 10241 10238 10236 10233 10231 10228 10225 10222 10218 10215 10212 10209 10205 10202 10198 10195 10192 10187 10183 10179 10176 10172 10167 10162 10158 10154 10149 10145 10140 10134 10129 10123 10118 10113 10108 10102 10097 10092 10086 10080 10074 10068 10062 10057 10051 10044 10038 10031 10024 10017 10011 10005 10000 9993 9987 9980 9972 9964 9957 9949 9941 9935 9929 9923 9917 9910 9904 9898 9892 9886 9880 9874 9869 9864 9859
10237 10236 10235 10234 10233 10232 10230 10229 10228 10226 10224 10222 10219 10216 10213 10211 10208 10205 10202 10199 10196 10192 10189 10185 10182 10179 10175 10171 10167 10163 10160 10156 10151 10147 10142 10138 10133 10128 10123 10118 10112 10107 10101 10096 10091 10085 10080 10075 10069 10063 10057 10051 10046 10040 10035 10029 10022 10015 10009 10003 9997 9991 9986 9980 9973 9965 9957 9948 9941 9934 9927 9920 9914 9908 9903 9897 9890 9884 9878 9873 9867 9861 9856 9851 9847
10222 10221 10219 10218 10218 10217 10215 10213 10211 10209 10207 10205 10202 10199 10196 10194 10191 10188 10185 10182 10179 10176 10172 10169 10166 10163 10159 10155 10151 10147 10143 10139 10135 10131 10126 10121 10116 10112 10107 10102 10097 10091 10086 10080 10074 10069 10063 10058 10052 10046 10040 10034 10028 10023 10018 10012 10006 10000 9994 9989 9983 9977 9971 9965 9958 9950 9942 9933 9926 9919 9913 9906 9899 9894 9889 9883 9877 9871 9865 9859 9854 9849 9843 9839 9834
10206 10205 10204 10202 10202 10201 10199 10197 10195 10193 10190 10188 10185 10183 10180 10178 10175 10172 10169 10166 10163 10160 10156 10153 10150 10146 10142 10139 10134 10130 10126 10122 10118 10114 10109 10105 10100 10095 10091 10086 10081 10075 10070 10064 10058 10053 10047 10041 10036 10030 10024 10018 10012 10006 10001 9995 9990 9984 9979 9973 9968 9962 9956 9949 9942 9934 9927 9920 9913 9905 9898 9891 9885 9880 9875 9870 9864 9858 9852 9846 9842 9837 9832 9826 9822
10189 10189 10188 10187 10186 10185 10184 10182 10180 10177 10175 10172 10170 10167 10165 10162 10159 10156 10153 10150 10147 10143 10140 10137 10133 10130 10126 10122 10118 10114 10110 10105 10101 10097 10093 10088 10084 10079 10074 10069 10064 10058 10053 10048 10042 10037 10031 10026 10020 10014 10008 10002 9996 9990 9985 9980 9974 9969 9963 9957 9952 9946 9940 9933 9926 9919 9913 9906 9900 9892 9884 9878 9872 9867 9862 9857 9852 9846 9840 9834 9830 9826 9821 9815 9810
10172 10172 10171 10171 10170 10169 10167 10166 10164 10162 10159 10157 10154 10152 10149 10146 10143 10140 10137 10134 10130 10127 10124 10120 10117 10113 10110 10106 10102 10098 10094 10090 10085 10081 10077 10072 10068 10063 10058 10053 10047 10042 10037 10032 10026 10021 10016 10010 10005 9999 9993 9987 9981 9975 9970 9964 9958 9953 9947 9941 9935 9930 9924 9918 9911 9905 9899 9893 9886 9879 9871 9864 9858 9853 9849 9845 9840 9835 9829 9823 9818 9815 9810 9804 9799
10157 10156 10155 10154 10153 10152 10150 10149 10147 10145 10143 10141 10138 10135 10132 10129 10126 10123 10120 10117 10114 10110 10107 10104 10100 10097 10093 10089 10086 10082 10078 10074 10070 10065 10061 10056 10051 10047 10042 10037 10031 10026 10021 10016 10011 10005 10000 9995 9989 9984 9978 9973 9967 9961 9955 9949 9943 9937 9931 9925 9919 9914 9909 9903 9896 9891 9885 9879 9872 9866 9858 9851 9845 9840 9837 9833 9829 9824 9818 9812 9808 9804 9799 9794 9789
10141 10141 10140 10139 10137 10136 10134 10132 10130 10129 10127 10124 10122 10119 10116 10113 10110 10107 10104 10101 10097 10094 10091 10088 10084 10081 10077 10074 10070 10066 10062 10058 10054 10049 10045 10040 10035 10030 10026 10020 10015 10010 10005 10000 9995 9990 9985 9979 9974 9968 9963 9958 9952 9946 9940 9933 9927 9921 9915 9909 9903 9898 9893 9888 9882 9876 9870 9865 9859 9853 9846 9839 9833 9828 9824 9821 9817 9813 9807 9802 9797 9793 9789 9784 9779
10126 10126 10125 10124 10122 10120 10118 10116 10115 10113 10110 10108 10106 10103 10100 10098 10094 10091 10088 10085 10082 10079 10075 10072 10069 10065 10061 10058 10054 10050 10046 10042 10037 10033 10028 10024 10019 10014 10009 10004 9999 9994 9989 9984 9979 9974 9969 9964 9958 9953 9948 9942 9936 9931 9925 9918 9912 9906 9899 9893 9888 9882 9878 9873 9867 9862 9856 9851 9846 9840 9834 9828 9822 9817 9813 9809 9806 9801 9796 9791 9787 9783 9778 9774 9770
10113 10112 10111 10109 10107 10105 10103 10101 10099 10097 10095 10092 10090 10087 10085 10082 10079 10076 10073 10070 10066 10063 10060 10056 10053 10049 10046 10042 10038 10034 10030 10026 10021 10017 10013 10008 10003 9998 9993 9988 9983 9978 9973 9968 9963 9958 9953 9948 9942 9937 9931 9926 9920 9915 9909 9903 9897 9890 9884 9878 9872 9867 9862 9858 9853 9847 9842 9837 9832 9828 9822 9817 9811 9806 9802 9798 9795 9791 9786 9781 9777 9773 9769 9764 9761
10099 10098 10096 10094 10093 10091 10089 10087 10084 10082 10079 10077 10074 10072 10069 10067 10064 10061 10058 10054 10051 10047 10044 10040 10037 10033 10029 10026 10022 10018 10014 10010 10006 10001 9997 9992 9987 9982 9977 9972 9967 9962 9957 9952 9947 9941 9936 9931 9925 9920 9915 9910 9904 9899 9893 9887 9881 9875 9869 9864 9858 9852 9847 9843 9838 9833 9828 9823 9819 9815 9811 9806 9801 9796 9791 9787 9784 9780 9776 9772 9768 9763 9759 9755 9752
10085 10084 10082 10080 10078 10076 10074 10072 10070 10067 10065 10062 10060 10057 10054 10051 10048 10045 10042 10039 10035 10032 10028 10025 10021 10017 10013 10009 10005 10001 9998 9994 9989 9985 9980 9976 9971 9966 9960 9955 9950 9945 9941 9936 9930 9925 9920 9914 9909 9903 9898 9893 9888 9883 9877 9871 9866 9861 9855 9850 9844 9838 9832 9828 9824 9820 9815 9810 9806 9803 9799 9794 9790 9786 9781 9777 9773 9770 9766 9762 9759 9754 9750 9746 9743
10071 10069 10068 10066 10064 10062 10060 10058 10055 10053 10051 10048 10045 10042 10039 10036 10033 10030 10027 10023 10020 10016 10013 10009 10005 10001 9997 9993 9989 9985 9981 9977 9972 9967 9963 9958 9953 9948 9943 9938 9933 9928 9924 9919 9914 9909 9903 9898 9892 9887 9881 9876 9871 9866 9861 9856 9851 9846 9841 9836 9830 9824 9819 9814 9810 9806 9802 9798 9794 9791 9787 9783 9779 9775 9771 9767 9763 9760 9756 9753 9750 9746 9741 9737 9734
10054 10053 10051 10050 10048 10046 10044 10042 10040 10038 10035 10033 10030 10027 10024 10021 10018 10015 10011 10008 10004 10001 9997 9993 9989 9985 9981 9977 9973 9969 9964 9959 9954 9949 9945 9940 9936 9931 9927 9922 9917 9912 9907 9902 9897 9892 9887 9881 9876 9870 9865 9860 9855 9850 9846 9841 9836 9832 9827 9822 9817 9811 9806 9802 9797 9794 9790 9786 9782 9778 9775 9771 9768 9764 9761 9757 9753 9750 9747 9743 9740 9737 9733 9729 9726
10036 10035 10034 10033 10031 10030 10028 10026 10024 10022 10019 10017 10014 10011 10008 10005 10003 9999 9996 9992 9989 9985 9981 9977 9973 9969 9965 9961 9956 9951 9946 9941 9937 9932 9928 9924 9919 9915 9911 9906 9901 9896 9891 9886 9880 9875 9870 9865 9860 9854 9849 9844 9840 9835 9830 9826 9822 9818 9813 9808 9803 9799 9795 9790 9786 9782 9778 9774 9770 9767 9763 9760 9756 9753 9750 9747 9743 9740 9737 9734 9731 9728 9724 9720 9717
10020 10019 10018 10017 10015 10014 10012 10010 10008 10006 10004 10001 9999 9996 9993 9990 9987 9984 9980 9977 9973 9969 9966 9962 9957 9953 9948 9944 9940 9935 9930 9925 9920 9916 9912 9907 9903 9899 9895 9890 9885 9880 9875 9869 9864 9859 9854 9850 9845 9840 9835 9830 9825 9820 9816 9811 9807 9803 9799 9794 9791 9787 9784 9779 9774 9771 9767 9763 9759 9755 9752 9748 9745 9742 9739 9736 9733 9730 9727 9724 9721 9719 9716 9712 9709
10005 10004 10003 10001 10000 9998 9997 9995 9993 9991 9988 9986 9983 9981 9978 9975 9972 9968 9965 9961 9958 9954 9950 9946 9941 9937 9932 9928 9924 9919 9914 9909 9904 9900 9896 9891 9887 9882 9878 9873 9868 9864 9859 9853 9848 9844 9839 9835 9830 9825 9820 9815 9811 9806 9802 9797 9793 9789 9785 9781 9778 9776 9772 9768 9763 9760 9756 9751 9747 9744 9741 9737 9734 9731 9728 9725 9723 9720 9718 9715 9712 9710 9707 9704 9701